Weather History for Tunica, MS

Change the Weather History Date:

Sunday, November 25, 2012

  Actual Average (KMEM) Record (KMEM)
Temperature  
Mean Temperature 44 °F 49 °F  
Max Temperature 59 °F 59 °F 77 °F (1908)
Min Temperature 30 °F 40 °F 9 °F (1950)
Degree Days  
Heating Degree Days 20 16  
Month to date heating degree days 285  
Since 1 July heating degree days 416  
Cooling Degree Days 0 0  
Month to date cooling degree days 11  
Year to date cooling degree days 2254  
Moisture  
Dew Point 31 °F    
Average Humidity 65    
Maximum Humidity 93    
Minimum Humidity 34    
Precipitation  
Precipitation 0.00 in 0.20 in 2.41 in (1895)
Month to date precipitation 4.44  
Year to date precipitation 46.89  
Snow  
Snow 0.00 in 0.00 in T in (2010)
Month to date snowfall 0.0  
Since 1 July snowfall 0.0  
Since 1 September snowfall 0.0  
Snow Depth -    
Sea Level Pressure  
Sea Level Pressure 30.10 in    
Wind  
Wind Speed 7 mph (South)    
Max Wind Speed 16 mph    
Max Gust Speed 20 mph    
Visibility 10 miles    
Events      
T = Trace of Precipitation, MM = Missing Value Source: NWS Daily Summary

Daily Weather History Graph

Daily Weather History Graph

Search for Another Location

Airport:

Trip Planner

Search our weather history database for the weather conditions in past years. The results will help you decide how hot, cold, wet, or windy it might be!

Date:

Astronomy

Nov. 25, 2012 Rise Set
Actual Time 6:45 AM CST 4:51 PM CST
Civil Twilight 6:17 AM CST 5:19 PM CST
Nautical Twilight 5:46 AM CST 5:49 PM CST
Astronomical Twilight 5:16 AM CST 6:20 PM CST
Moon 3:04 PM CST (11/25) 4:04 AM CST (11/25)
Length of Visible Light 11h 01m
Length of Day
10h 06m
Waxing Gibbous, 93% of the Moon is Illuminated
Nov 25
Waxing Gibbous
Nov 28
Full
Dec 6
Last Quarter
Dec 13
New
Dec 19
First Quarter

Hourly Weather History & Observations

Time (CST) Temp. Windchill Dew Point Humidity Pressure Visibility Wind Dir Wind Speed Gust Speed Precip Events Conditions
12:15 AM 32.0 °F 26.4 °F 30.2 °F 93% 30.19 in 10.0 mi South 5.8 mph - N/A   Clear
12:35 AM 32.0 °F 27.5 °F 28.4 °F 87% 30.18 in 10.0 mi South 4.6 mph - N/A   Clear
12:55 AM 32.0 °F 26.4 °F 28.4 °F 87% 30.18 in 10.0 mi South 5.8 mph - N/A   Clear
1:15 AM 32.0 °F 28.7 °F 28.4 °F 87% 30.18 in 10.0 mi South 3.5 mph - N/A   Clear
1:35 AM 32.0 °F 28.7 °F 28.4 °F 87% 30.17 in 10.0 mi South 3.5 mph - N/A   Clear
1:55 AM 30.2 °F 26.7 °F 28.4 °F 93% 30.17 in 10.0 mi SSE 3.5 mph - N/A   Clear
2:15 AM 32.0 °F 27.5 °F 28.4 °F 87% 30.17 in 10.0 mi SSE 4.6 mph - N/A   Clear
2:35 AM 32.0 °F 27.5 °F 28.4 °F 87% 30.16 in 10.0 mi SSE 4.6 mph - N/A   Clear
2:55 AM 32.0 °F 26.4 °F 28.4 °F 87% 30.16 in 10.0 mi South 5.8 mph - N/A   Clear
3:15 AM 30.2 °F 25.4 °F 28.4 °F 93% 30.15 in 10.0 mi SSE 4.6 mph - N/A   Clear
3:35 AM 30.2 °F 25.4 °F 28.4 °F 93% 30.15 in 10.0 mi SSE 4.6 mph - N/A   Clear
3:55 AM 30.2 °F 25.4 °F 28.4 °F 93% 30.15 in 10.0 mi South 4.6 mph - N/A   Clear
4:15 AM 30.2 °F 25.4 °F 28.4 °F 93% 30.15 in 10.0 mi SSE 4.6 mph - N/A   Clear
4:35 AM 32.0 °F 28.7 °F 28.4 °F 87% 30.16 in 10.0 mi SSE 3.5 mph - N/A   Clear
4:55 AM 30.2 °F 25.4 °F 28.4 °F 93% 30.15 in 10.0 mi SSE 4.6 mph - N/A   Clear
5:15 AM 30.2 °F 23.4 °F 28.4 °F 93% 30.15 in 10.0 mi SSE 6.9 mph - N/A   Clear
5:35 AM 30.2 °F 25.4 °F 26.6 °F 86% 30.15 in 10.0 mi SSE 4.6 mph - N/A   Clear
5:55 AM 30.2 °F 24.3 °F 28.4 °F 93% 30.15 in 10.0 mi SSE 5.8 mph - N/A   Clear
6:15 AM 30.2 °F 25.4 °F 26.6 °F 86% 30.15 in 10.0 mi SSE 4.6 mph - N/A   Clear
6:35 AM 30.2 °F 24.3 °F 26.6 °F 86% 30.15 in 10.0 mi SSE 5.8 mph - N/A   Clear
6:55 AM 30.2 °F 25.4 °F 28.4 °F 93% 30.16 in 10.0 mi SSE 4.6 mph - N/A   Clear
7:15 AM 32.0 °F 25.6 °F 28.4 °F 87% 30.16 in 10.0 mi SSE 6.9 mph - N/A   Clear
7:55 AM 33.8 °F 28.6 °F 30.2 °F 87% 30.17 in 10.0 mi SSE 5.8 mph - N/A   Clear
8:15 AM 35.6 °F 29.9 °F 30.2 °F 81% 30.17 in 10.0 mi South 6.9 mph - N/A   Clear
8:35 AM 37.4 °F 30.8 °F 30.2 °F 75% 30.18 in 10.0 mi South 9.2 mph - N/A   Clear
8:55 AM 39.2 °F 33.0 °F 32.0 °F 75% 30.18 in 10.0 mi South 9.2 mph - N/A   Clear
9:15 AM 41.0 °F 34.7 °F 32.0 °F 70% 30.17 in 10.0 mi South 10.4 mph - N/A   Clear
9:35 AM 42.8 °F 36.6 °F 32.0 °F 66% 30.16 in 10.0 mi South 11.5 mph 17.3 mph N/A   Clear
9:55 AM 44.6 °F 38.8 °F 32.0 °F 61% 30.16 in 10.0 mi South 11.5 mph 17.3 mph N/A   Clear
10:15 AM 46.4 °F 39.8 °F 32.0 °F 57% 30.16 in 10.0 mi SSW 16.1 mph - N/A   Clear
10:35 AM 48.2 °F - 32.0 °F 54% 30.15 in 10.0 mi SSW 15.0 mph - N/A   Clear
10:55 AM 50.0 °F - 32.0 °F 50% 30.14 in 10.0 mi SSW 15.0 mph - N/A   Clear
11:15 AM 51.8 °F - 32.0 °F 47% 30.13 in 10.0 mi South 15.0 mph 19.6 mph N/A   Clear
11:35 AM 51.8 °F - 32.0 °F 47% 30.12 in 10.0 mi South 15.0 mph - N/A   Clear
11:55 AM 53.6 °F - 32.0 °F 44% 30.11 in 10.0 mi South 11.5 mph 17.3 mph N/A   Clear
12:15 PM 53.6 °F - 32.0 °F 44% 30.10 in 10.0 mi SSW 15.0 mph - N/A   Clear
12:35 PM 55.4 °F - 32.0 °F 41% 30.09 in 10.0 mi SSW 13.8 mph 18.4 mph N/A   Clear
12:55 PM 55.4 °F - 32.0 °F 41% 30.08 in 10.0 mi SSW 10.4 mph - N/A   Clear
1:15 PM 55.4 °F - 30.2 °F 38% 30.07 in 10.0 mi SSW 15.0 mph 18.4 mph N/A   Clear
1:35 PM 55.4 °F - 30.2 °F 38% 30.06 in 10.0 mi South 12.7 mph - N/A   Clear
1:55 PM 57.2 °F - 30.2 °F 36% 30.05 in 10.0 mi SSW 11.5 mph - N/A   Clear
2:15 PM 57.2 °F - 30.2 °F 36% 30.04 in 10.0 mi South 12.7 mph - N/A   Clear
2:35 PM 59.0 °F - 30.2 °F 34% 30.04 in 10.0 mi South 15.0 mph - N/A   Clear
2:55 PM 59.0 °F - 30.2 °F 34% 30.03 in 10.0 mi South 11.5 mph - N/A   Clear
3:15 PM 59.0 °F - 30.2 °F 34% 30.03 in 10.0 mi South 12.7 mph 17.3 mph N/A   Clear
3:35 PM 57.2 °F - 32.0 °F 38% 30.03 in 10.0 mi South 13.8 mph - N/A   Clear
3:55 PM 55.4 °F - 32.0 °F 41% 30.03 in 10.0 mi South 11.5 mph 16.1 mph N/A   Clear
4:15 PM 55.4 °F - 32.0 °F 41% 30.03 in 10.0 mi South 9.2 mph - N/A   Clear
4:35 PM 53.6 °F - 32.0 °F 44% 30.03 in 10.0 mi South 9.2 mph - N/A   Clear
4:55 PM 51.8 °F - 32.0 °F 47% 30.03 in 10.0 mi South 10.4 mph - N/A   Clear
5:15 PM 50.0 °F - 32.0 °F 50% 30.03 in 10.0 mi SSE 9.2 mph - N/A   Clear
5:55 PM 48.2 °F - 32.0 °F 54% 30.03 in 10.0 mi SSE 9.2 mph - N/A   Clear
6:15 PM 50.0 °F - 32.0 °F 50% 30.03 in 10.0 mi SE 9.2 mph - N/A   Clear
6:35 PM 48.2 °F - 32.0 °F 54% 30.03 in 10.0 mi SSE 9.2 mph - N/A   Clear
6:55 PM 46.4 °F 41.5 °F 33.8 °F 62% 30.03 in 10.0 mi SSE 10.4 mph - N/A   Clear
7:15 PM 44.6 °F 39.2 °F 32.0 °F 61% 30.02 in 10.0 mi SSE 10.4 mph - N/A   Clear
7:35 PM 46.4 °F 41.5 °F 32.0 °F 57% 30.02 in 10.0 mi SSE 10.4 mph - N/A   Clear
7:55 PM 46.4 °F 42.4 °F 32.0 °F 57% 30.02 in 10.0 mi SSE 8.1 mph - N/A   Clear
8:15 PM 46.4 °F 41.9 °F 32.0 °F 57% 30.02 in 10.0 mi SSE 9.2 mph - N/A   Clear
8:35 PM 46.4 °F 41.9 °F 32.0 °F 57% 30.03 in 10.0 mi South 9.2 mph - N/A   Clear
8:55 PM 46.4 °F 41.9 °F 32.0 °F 57% 30.03 in 10.0 mi South 9.2 mph - N/A   Clear
9:15 PM 44.6 °F 39.2 °F 32.0 °F 61% 30.03 in 10.0 mi SSE 10.4 mph - N/A   Clear
9:35 PM 44.6 °F 39.7 °F 32.0 °F 61% 30.03 in 10.0 mi SSE 9.2 mph - N/A   Clear
9:55 PM 44.6 °F 40.2 °F 32.0 °F 61% 30.03 in 10.0 mi South 8.1 mph - N/A   Clear
10:15 PM 42.8 °F 38.0 °F 32.0 °F 66% 30.04 in 10.0 mi South 8.1 mph - N/A   Clear
10:35 PM 44.6 °F 41.4 °F 32.0 °F 61% 30.05 in 10.0 mi South 5.8 mph - N/A   Clear
10:55 PM 44.6 °F 40.7 °F 32.0 °F 61% 30.05 in 10.0 mi South 6.9 mph - N/A   Clear
11:15 PM 41.0 °F 38.0 °F 32.0 °F 70% 30.06 in 10.0 mi SSE 4.6 mph - N/A   Clear
11:35 PM 44.6 °F 42.2 °F 32.0 °F 61% 30.06 in 10.0 mi SSE 4.6 mph - N/A   Clear
11:55 PM 41.0 °F 37.1 °F 32.0 °F 70% 30.06 in 10.0 mi SSE 5.8 mph - N/A   Clear